Location: Kra?nica
(53.4833°N, 14.6167°E)
Time: 16:44:53
(UTC+00:00)

Cosmos 2360 Rocket - Pass Details

Date: 23 May 2024
Orbit: 832 x 846 km, 71.0° (Epoch: 13 June)

Event Time Altitude Azimuth Distance (km) Brightness Sun altitude
Rises 00:12:49 0° 328° (NNW) 3,417 6.0 -14.1°
Reaches altitude 10° 00:15:22 10° 334° (NNW) 2,479 5.3 -14.0°
Maximum altitude 00:20:54 50° 49° (NE) 1,077 3.2 -13.8°
Drops below altitude 10° 00:26:24 10° 125° (SE) 2,468 4.5 -13.5°
Sets 00:28:55 0° 130° (SE) 3,399 5.2 -13.3°
